{"data":{"norad_id":55983,"epoch":"2026-09-21T17:57:50.649696Z","epoch_age_seconds":73446,"freshness":"FRESH","line1":"1 55983U 23041C   26264.74850289  .00008795  00000+0  23791-3 0  9996","line2":"2 55983  42.0019 358.1822 0008683 321.0958  38.9255 15.37820456196807","mean_motion":15.37820456,"eccentricity":0.0008683,"inclination_deg":42.0019,"raan_deg":358.1822,"arg_perigee_deg":321.0958,"mean_anomaly_deg":38.9255,"bstar":0.00023791,"rev_number":19680,"period_min":93.639019716616,"perigee_km":446.6246817366,"apogee_km":458.48686280492,"semimajor_km":6830.6927722708,"source":"CELESTRAK","updated_at":"2026-09-22T09:00:25.610066Z"}}